Location: Unspecified
(0.0000°N, 0.0000°E)
Time: 07:08:57
(UTC+00:00)

Courier 1B - Pass Details

Date: 29 September 2023
Orbit: 962 x 1208 km, 28.3° (Epoch: 06 December)

Event Time Altitude Azimuth Distance (km) Brightness Sun altitude
Rises 17:40:52 0° 321° (NW) 4,085 11.3 2.4°
Reaches altitude 10° 17:44:25 10° 334° (NNW) 3,102 10.5 1.5°
Maximum altitude 17:50:20 24° 25° (NNE) 2,200 9.1 0.0°
Drops below altitude 10° 17:56:03 10° 76° (ENE) 2,991 9.4 -1.4°
Enters shadow 17:58:38 - 87° (E) 3,686 9.8 -2.1°
Sets 17:59:23 0° 89° (E) 3,907 - -2.3°
